0 HST 1 20580U 90037B 26036.31204605 .00009602 00000-0 32359-3 0 9994 2 20580 28.4665 260.7880 0001932 109.1408 250.9397 15.28961568768352 0 ISS (ZARYA) 1 25544U 98067A 26036.05036301 .00011388 00000-0 21868-3 0 9994 2 25544 51.6315 233.7051 0011125 65.7526 294.4623 15.48402345551271 0 CXO 1 25867U 99040B 26034.50897227 .00000739 00000-0 00000-0 0 9994 2 25867 54.0018 120.6888 8050674 310.8579 0.1951 0.37804724 16822